When you browse on this site, cookies collect data to enhance your experience and personalize the content and advertising you see.
Visit our Privacy Policy to learn more. By continuing to use the site, you agree to this use of cookies and data.
  • In Hungary
  • List of Countries
  • For 7 days
  • Water Temperature
  • Satellite Maps
  • Weather Map
  • News
  • Weather Widgets
  • user-avatar
    Login

    Hourly Weather Wieloglowy

    Today, 19 December, Wednesday

    Time Temperature Precipitation Wind Pressure Humidity
    00:00 -2°C° 0 mm 4 mps 762 mmHg 94%
    01:00 -2°C° 0 mm 4 mps 762 mmHg 94%
    02:00 -1°C° 0 mm 4 mps 762 mmHg 94%
    03:00 -1°C° 0 mm 4 mps 762 mmHg 94%
    04:00 -1°C° 0 mm 4 mps 761 mmHg 94%
    05:00 -1°C° 0 mm 5 mps 761 mmHg 94%
    06:00 -2°C° 0 mm 5 mps 761 mmHg 93%
    07:00 -2°C° 0 mm 5 mps 761 mmHg 93%
    08:00 -2°C° 0 mm 6 mps 760 mmHg 88%
    09:00 -2°C° 0 mm 6 mps 760 mmHg 84%
    10:00 -2°C° 0 mm 7 mps 760 mmHg 79%
    11:00 -2°C° 0 mm 7 mps 759 mmHg 76%
    12:00 -2°C° 0 mm 7 mps 759 mmHg 74%
    13:00 -2°C° 0 mm 7 mps 758 mmHg 71%
    14:00 -2°C° 0 mm 7 mps 758 mmHg 74%
    15:00 -3°C° 0 mm 7 mps 758 mmHg 76%
    16:00 -3°C° 0 mm 7 mps 758 mmHg 79%
    17:00 -3°C° 0 mm 7 mps 757 mmHg 79%
    18:00 -3°C° 0 mm 7 mps 757 mmHg 79%
    19:00 -3°C° 0 mm 6 mps 757 mmHg 79%
    20:00 -3°C° 0 mm 6 mps 757 mmHg 79%
    21:00 -3°C° 0 mm 6 mps 757 mmHg 79%
    22:00 -2°C° 0 mm 5 mps 756 mmHg 79%
    23:00 -2°C° 0 mm 5 mps 756 mmHg 79%

    Tomorrow, 20 December, Thursday

    Time Temperature Precipitation Wind Pressure Humidity
    00:00 -2°C° 0 mm 5 mps 756 mmHg 79%
    01:00 -2°C° 0 mm 5 mps 756 mmHg 79%
    02:00 -2°C° 0.1 mm 5 mps 756 mmHg 81%
    03:00 -2°C° 0.1 mm 5 mps 756 mmHg 83%
    04:00 -2°C° 0.1 mm 5 mps 756 mmHg 85%
    05:00 -2°C° 0.5 mm 5 mps 756 mmHg 87%
    06:00 -2°C° 0.5 mm 5 mps 756 mmHg 89%
    07:00 -2°C° 0.5 mm 4 mps 756 mmHg 92%
    08:00 -2°C° 0.5 mm 4 mps 755 mmHg 92%
    09:00 -2°C° 0.5 mm 4 mps 755 mmHg 92%
    10:00 -2°C° 0.5 mm 4 mps 755 mmHg 92%
    11:00 -2°C° 0.4 mm 4 mps 755 mmHg 92%
    12:00 -2°C° 0.4 mm 4 mps 755 mmHg 92%
    13:00 -2°C° 0.4 mm 4 mps 755 mmHg 92%
    14:00 -2°C° 0.2 mm 4 mps 755 mmHg 92%
    15:00 -2°C° 0.2 mm 4 mps 755 mmHg 93%
    16:00 -2°C° 0.2 mm 4 mps 755 mmHg 93%
    17:00 -2°C° 0.1 mm 4 mps 754 mmHg 93%
    18:00 -2°C° 0.1 mm 4 mps 754 mmHg 93%
    19:00 -2°C° 0.1 mm 4 mps 754 mmHg 93%
    20:00 -2°C° 0.1 mm 4 mps 754 mmHg 94%
    21:00 -1°C° 0.1 mm 4 mps 754 mmHg 94%
    22:00 -1°C° 0.1 mm 4 mps 754 mmHg 94%
    23:00 -1°C° 0.2 mm 4 mps 754 mmHg 95%

    Day after tomorrow, 21 December, Friday

    Time Temperature Precipitation Wind Pressure Humidity
    00:00 -1°C° 0.2 mm 4 mps 753 mmHg 95%
    01:00 -1°C° 0.2 mm 4 mps 753 mmHg 96%
    02:00 -1°C° 0 mm 4 mps 753 mmHg 96%
    03:00 -1°C° 0 mm 4 mps 752 mmHg 96%
    04:00 -1°C° 0 mm 4 mps 752 mmHg 96%
    05:00 0°C° 0 mm 4 mps 752 mmHg 96%
    06:00 0°C° 0 mm 4 mps 752 mmHg 96%
    07:00 0°C° 0 mm 4 mps 751 mmHg 96%
    08:00 0°C° 0 mm 4 mps 751 mmHg 96%
    09:00 0°C° 0 mm 4 mps 751 mmHg 96%
    10:00 0°C° 0 mm 5 mps 751 mmHg 96%
    11:00 0°C° 0 mm 5 mps 750 mmHg 96%
    12:00 0°C° 0 mm 5 mps 750 mmHg 96%
    13:00 0°C° 0 mm 5 mps 749 mmHg 96%
    14:00 0°C° 0 mm 5 mps 749 mmHg 95%
    15:00 0°C° 0 mm 5 mps 748 mmHg 95%
    16:00 0°C° 0 mm 5 mps 747 mmHg 95%
    17:00 -1°C° 0.2 mm 6 mps 747 mmHg 94%
    18:00 -1°C° 0.2 mm 6 mps 746 mmHg 94%
    19:00 -1°C° 0.2 mm 6 mps 745 mmHg 93%
    20:00 -1°C° 0.5 mm 6 mps 744 mmHg 93%
    21:00 -1°C° 0.5 mm 6 mps 743 mmHg 93%
    22:00 -1°C° 0.5 mm 7 mps 742 mmHg 92%
    23:00 -1°C° 0.9 mm 6 mps 741 mmHg 93%

    22 December, Saturday

    Time Temperature Precipitation Wind Pressure Humidity
    00:00 -1°C° 0.9 mm 6 mps 741 mmHg 93%
    01:00 0°C° 0.9 mm 5 mps 740 mmHg 94%
    02:00 +1°C° 0.8 mm 5 mps 740 mmHg 94%
    03:00 +2°C° 0.8 mm 6 mps 740 mmHg 93%
    04:00 +2°C° 0.8 mm 6 mps 740 mmHg 93%
    05:00 +3°C° 0.8 mm 6 mps 740 mmHg 92%
    06:00 +3°C° 0.8 mm 6 mps 739 mmHg 92%
    07:00 +3°C° 0.8 mm 7 mps 739 mmHg 91%
    08:00 +3°C° 0.3 mm 7 mps 739 mmHg 91%
    09:00 +3°C° 0.3 mm 7 mps 740 mmHg 90%
    10:00 +3°C° 0.3 mm 7 mps 740 mmHg 90%
    11:00 +3°C° 0.1 mm 7 mps 740 mmHg 90%
    12:00 +3°C° 0.1 mm 7 mps 740 mmHg 91%
    13:00 +3°C° 0.1 mm 7 mps 741 mmHg 91%
    14:00 +2°C° 0.1 mm 6 mps 741 mmHg 92%
    15:00 +2°C° 0.1 mm 6 mps 742 mmHg 92%
    16:00 +2°C° 0.1 mm 5 mps 742 mmHg 93%
    17:00 +1°C° 0 mm 5 mps 743 mmHg 92%
    18:00 +1°C° 0 mm 4 mps 744 mmHg 92%
    19:00 +1°C° 0 mm 4 mps 744 mmHg 92%
    20:00 +2°C° 0 mm 3 mps 745 mmHg 92%
    21:00 +1°C° 0 mm 3 mps 745 mmHg 93%
    22:00 +1°C° 0 mm 3 mps 746 mmHg 93%
    23:00 +2°C° 0 mm 2 mps 747 mmHg 93%

    23 December, Sunday

    Time Temperature Precipitation Wind Pressure Humidity
    00:00 +2°C° 0 mm 2 mps 747 mmHg 93%
    01:00 +2°C° 0 mm 2 mps 747 mmHg 93%
    02:00 +2°C° 0 mm 2 mps 748 mmHg 93%
    03:00 +3°C° 0 mm 1 mps 748 mmHg 93%
    04:00 +3°C° 0 mm 1 mps 748 mmHg 93%
    05:00 +2°C° 0.4 mm 2 mps 748 mmHg 93%
    06:00 +2°C° 0.4 mm 2 mps 748 mmHg 93%
    07:00 +1°C° 0.4 mm 3 mps 748 mmHg 93%
    08:00 0°C° 0.5 mm 4 mps 748 mmHg 93%
    09:00 +1°C° 0.5 mm 4 mps 748 mmHg 93%
    10:00 +2°C° 0.5 mm 5 mps 749 mmHg 92%
    11:00 +2°C° 0.5 mm 5 mps 749 mmHg 92%
    12:00 +2°C° 0.5 mm 6 mps 749 mmHg 91%
    13:00 +3°C° 0.5 mm 6 mps 749 mmHg 91%
    14:00 +2°C° 0.5 mm 6 mps 749 mmHg 91%
    15:00 +2°C° 0.5 mm 7 mps 749 mmHg 92%
    16:00 +2°C° 0.5 mm 7 mps 749 mmHg 92%
    17:00 0°C° 0.2 mm 7 mps 750 mmHg 89%
    18:00 0°C° 0.2 mm 7 mps 751 mmHg 86%
    19:00 -1°C° 0.2 mm 7 mps 752 mmHg 83%
    20:00 -1°C° 0 mm 6 mps 753 mmHg 82%
    21:00 -1°C° 0 mm 6 mps 754 mmHg 80%
    22:00 -1°C° 0 mm 5 mps 755 mmHg 79%
    23:00 -1°C° 0 mm 5 mps 755 mmHg 79%

    24 December, Monday

    Time Temperature Precipitation Wind Pressure Humidity
    00:00 -1°C° 0 mm 4 mps 756 mmHg 80%
    01:00 -1°C° 0 mm 4 mps 756 mmHg 80%
    02:00 -1°C° 0 mm 4 mps 756 mmHg 81%
    03:00 -2°C° 0 mm 4 mps 757 mmHg 82%
    04:00 -2°C° 0 mm 4 mps 757 mmHg 84%
    05:00 -2°C° 0 mm 4 mps 757 mmHg 85%
    06:00 -2°C° 0 mm 4 mps 757 mmHg 86%
    07:00 -1°C° 0 mm 4 mps 758 mmHg 87%
    08:00 -1°C° 0.1 mm 4 mps 758 mmHg 87%
    09:00 -1°C° 0.1 mm 4 mps 758 mmHg 87%
    10:00 0°C° 0.1 mm 4 mps 759 mmHg 87%
    11:00 0°C° 0 mm 4 mps 759 mmHg 86%
    12:00 0°C° 0 mm 4 mps 759 mmHg 85%
    13:00 +1°C° 0 mm 4 mps 759 mmHg 84%
    14:00 +1°C° 0 mm 3 mps 759 mmHg 86%
    15:00 +1°C° 0 mm 3 mps 760 mmHg 87%
    16:00 +1°C° 0 mm 3 mps 760 mmHg 89%
    17:00 0°C° 0 mm 3 mps 760 mmHg 88%
    18:00 0°C° 0 mm 3 mps 761 mmHg 87%
    19:00 0°C° 0 mm 3 mps 761 mmHg 86%
    20:00 0°C° 0 mm 3 mps 761 mmHg 85%
    21:00 -1°C° 0 mm 2 mps 761 mmHg 85%
    22:00 -1°C° 0 mm 2 mps 762 mmHg 84%
    23:00 -1°C° 0 mm 2 mps 762 mmHg 85%
    Show more